• In Portugal
  • List of Countries
  • For 7 days
  • Water Temperature
  • Satellite Maps
  • Weather Map
  • Weather Widgets
  • user-avatar
    Login

    Hourly Weather Bakhmut (Artemivsk)

    Today, 19 October, Friday

    Time Temperature Precipitation Wind Pressure Humidity
    00:00 +14°C° 0 mm 3 mps 755 mmHg 53%
    01:00 +14°C° 0 mm 3 mps 755 mmHg 55%
    02:00 +14°C° 0 mm 3 mps 755 mmHg 57%
    03:00 +14°C° 0 mm 2 mps 755 mmHg 59%
    04:00 +14°C° 0 mm 2 mps 754 mmHg 61%
    05:00 +13°C° 0 mm 2 mps 754 mmHg 64%
    06:00 +13°C° 0 mm 2 mps 754 mmHg 66%
    07:00 +13°C° 0 mm 3 mps 754 mmHg 63%
    08:00 +14°C° 0 mm 3 mps 754 mmHg 60%
    09:00 +15°C° 0 mm 4 mps 754 mmHg 57%
    10:00 +18°C° 0 mm 4 mps 754 mmHg 52%
    11:00 +19°C° 0 mm 4 mps 753 mmHg 46%
    12:00 +21°C° 0 mm 4 mps 753 mmHg 41%
    13:00 +22°C° 0 mm 4 mps 753 mmHg 39%
    14:00 +22°C° 0 mm 4 mps 753 mmHg 37%
    15:00 +23°C° 0 mm 4 mps 752 mmHg 35%
    16:00 +22°C° 0 mm 4 mps 752 mmHg 39%
    17:00 +20°C° 0 mm 3 mps 752 mmHg 43%
    18:00 +19°C° 0 mm 2 mps 751 mmHg 47%
    19:00 +18°C° 0 mm 2 mps 751 mmHg 50%
    20:00 +17°C° 0 mm 2 mps 751 mmHg 53%
    21:00 +17°C° 0 mm 2 mps 751 mmHg 56%
    22:00 +16°C° 0 mm 2 mps 751 mmHg 59%
    23:00 +16°C° 0 mm 2 mps 751 mmHg 63%

    Tomorrow, 20 October, Saturday

    Time Temperature Precipitation Wind Pressure Humidity
    00:00 +15°C° 0 mm 2 mps 751 mmHg 66%
    01:00 +15°C° 0 mm 2 mps 750 mmHg 69%
    02:00 +14°C° 0 mm 1 mps 750 mmHg 72%
    03:00 +14°C° 0 mm 1 mps 750 mmHg 76%
    04:00 +13°C° 0 mm 1 mps 750 mmHg 78%
    05:00 +13°C° 0 mm 1 mps 750 mmHg 80%
    06:00 +13°C° 0 mm 1 mps 750 mmHg 82%
    07:00 +14°C° 0 mm 1 mps 750 mmHg 79%
    08:00 +14°C° 0 mm 1 mps 750 mmHg 75%
    09:00 +15°C° 0 mm 1 mps 750 mmHg 72%
    10:00 +18°C° 0 mm 1 mps 750 mmHg 66%
    11:00 +19°C° 0 mm 1 mps 750 mmHg 60%
    12:00 +21°C° 0 mm 1 mps 750 mmHg 54%
    13:00 +21°C° 0 mm 1 mps 750 mmHg 52%
    14:00 +22°C° 0 mm 1 mps 750 mmHg 50%
    15:00 +22°C° 0 mm 1 mps 750 mmHg 47%
    16:00 +20°C° 0 mm 2 mps 750 mmHg 51%
    17:00 +19°C° 0 mm 2 mps 750 mmHg 55%
    18:00 +18°C° 0 mm 2 mps 750 mmHg 59%
    19:00 +18°C° 0 mm 2 mps 750 mmHg 62%
    20:00 +17°C° 0 mm 2 mps 750 mmHg 65%
    21:00 +16°C° 0 mm 2 mps 750 mmHg 68%
    22:00 +16°C° 0 mm 1 mps 750 mmHg 70%
    23:00 +15°C° 0 mm 1 mps 750 mmHg 73%

    Day after tomorrow, 21 October, Sunday

    Time Temperature Precipitation Wind Pressure Humidity
    00:00 +15°C° 0 mm 1 mps 749 mmHg 75%
    01:00 +14°C° 0 mm 1 mps 749 mmHg 78%
    02:00 +14°C° 0 mm 1 mps 749 mmHg 80%
    03:00 +14°C° 0 mm 1 mps 749 mmHg 83%
    04:00 +13°C° 0 mm 1 mps 749 mmHg 84%
    05:00 +13°C° 0 mm 1 mps 749 mmHg 86%
    06:00 +13°C° 0 mm 1 mps 749 mmHg 88%
    07:00 +14°C° 0 mm 1 mps 749 mmHg 85%
    08:00 +14°C° 0 mm 1 mps 749 mmHg 81%
    09:00 +15°C° 0 mm 1 mps 750 mmHg 78%
    10:00 +16°C° 0 mm 1 mps 750 mmHg 74%
    11:00 +18°C° 0 mm 1 mps 750 mmHg 70%
    12:00 +18°C° 0 mm 1 mps 750 mmHg 66%
    13:00 +19°C° 0.1 mm 1 mps 750 mmHg 65%
    14:00 +19°C° 0.1 mm 1 mps 750 mmHg 64%
    15:00 +19°C° 0.1 mm 1 mps 750 mmHg 63%
    16:00 +18°C° 0.1 mm 1 mps 750 mmHg 66%
    17:00 +17°C° 0.1 mm 2 mps 750 mmHg 70%
    18:00 +16°C° 0.1 mm 2 mps 750 mmHg 73%
    19:00 +15°C° 0 mm 2 mps 750 mmHg 76%
    20:00 +15°C° 0 mm 2 mps 750 mmHg 78%
    21:00 +14°C° 0 mm 1 mps 750 mmHg 80%
    22:00 +14°C° 0 mm 1 mps 750 mmHg 82%
    23:00 +14°C° 0 mm 1 mps 750 mmHg 83%

    22 October, Monday

    Time Temperature Precipitation Wind Pressure Humidity
    00:00 +13°C° 0 mm 1 mps 750 mmHg 84%
    01:00 +13°C° 0 mm 1 mps 750 mmHg 85%
    02:00 +13°C° 0 mm 1 mps 750 mmHg 87%
    03:00 +13°C° 0 mm 1 mps 750 mmHg 88%
    04:00 +12°C° 0 mm 1 mps 750 mmHg 89%
    05:00 +12°C° 0 mm 1 mps 750 mmHg 90%
    06:00 +12°C° 0 mm 1 mps 750 mmHg 91%
    07:00 +13°C° 0 mm 2 mps 750 mmHg 89%
    08:00 +14°C° 0 mm 2 mps 750 mmHg 86%
    09:00 +14°C° 0 mm 2 mps 750 mmHg 84%
    10:00 +16°C° 0 mm 2 mps 751 mmHg 79%
    11:00 +17°C° 0 mm 3 mps 751 mmHg 73%
    12:00 +19°C° 0 mm 3 mps 751 mmHg 68%
    13:00 +19°C° 0.1 mm 3 mps 750 mmHg 68%
    14:00 +19°C° 0.1 mm 3 mps 750 mmHg 68%
    15:00 +19°C° 0.1 mm 3 mps 750 mmHg 69%
    16:00 +18°C° 0.5 mm 3 mps 750 mmHg 69%
    17:00 +18°C° 0.5 mm 3 mps 750 mmHg 70%
    18:00 +17°C° 0.5 mm 3 mps 749 mmHg 71%
    19:00 +17°C° 0.6 mm 3 mps 749 mmHg 71%
    20:00 +16°C° 0.6 mm 3 mps 749 mmHg 72%
    21:00 +16°C° 0.6 mm 3 mps 749 mmHg 72%
    22:00 +16°C° 0.6 mm 3 mps 749 mmHg 74%
    23:00 +14°C° 0.6 mm 4 mps 748 mmHg 76%

    23 October, Tuesday

    Time Temperature Precipitation Wind Pressure Humidity
    00:00 +14°C° 0.6 mm 4 mps 748 mmHg 77%
    01:00 +14°C° 0.6 mm 4 mps 748 mmHg 80%
    02:00 +14°C° 0.6 mm 4 mps 748 mmHg 83%
    03:00 +14°C° 0.6 mm 4 mps 747 mmHg 85%
    04:00 +14°C° 0.2 mm 4 mps 747 mmHg 87%
    05:00 +14°C° 0.2 mm 3 mps 747 mmHg 89%
    06:00 +14°C° 0.2 mm 3 mps 747 mmHg 90%
    07:00 +14°C° 0.1 mm 3 mps 747 mmHg 88%
    08:00 +14°C° 0.1 mm 4 mps 747 mmHg 87%
    09:00 +14°C° 0.1 mm 4 mps 747 mmHg 85%
    10:00 +15°C° 0 mm 5 mps 747 mmHg 82%
    11:00 +15°C° 0 mm 5 mps 747 mmHg 78%
    12:00 +15°C° 0 mm 5 mps 747 mmHg 75%
    13:00 +15°C° 0 mm 5 mps 747 mmHg 74%
    14:00 +15°C° 0 mm 4 mps 747 mmHg 73%
    15:00 +15°C° 0 mm 4 mps 747 mmHg 71%
    16:00 +16°C° 0 mm 3 mps 747 mmHg 73%
    17:00 +14°C° 0 mm 3 mps 748 mmHg 75%
    18:00 +15°C° 0 mm 2 mps 748 mmHg 77%
    19:00 +15°C° 0 mm 2 mps 748 mmHg 78%
    20:00 +15°C° 0 mm 1 mps 748 mmHg 80%
    21:00 +14°C° 0 mm 1 mps 748 mmHg 81%
    22:00 +14°C° 0.1 mm 1 mps 748 mmHg 81%
    23:00 +14°C° 0.1 mm 1 mps 748 mmHg 82%

    24 October, Wednesday

    Time Temperature Precipitation Wind Pressure Humidity
    00:00 +14°C° 0.1 mm 1 mps 748 mmHg 83%
    01:00 +13°C° 0 mm 1 mps 748 mmHg 84%
    02:00 +13°C° 0 mm 1 mps 747 mmHg 86%
    03:00 +12°C° 0 mm 1 mps 747 mmHg 87%
    04:00 +12°C° 0 mm 1 mps 747 mmHg 88%
    05:00 +11°C° 0 mm 0 mps 747 mmHg 89%
    06:00 +10°C° 0 mm 0 mps 746 mmHg 90%
    07:00 +11°C° 0 mm 0 mps 746 mmHg 87%
    08:00 +11°C° 0 mm 0 mps 746 mmHg 84%
    09:00 +12°C° 0 mm 0 mps 745 mmHg 81%
    10:00 +14°C° 0 mm 1 mps 745 mmHg 74%
    11:00 +15°C° 0 mm 2 mps 744 mmHg 68%
    12:00 +16°C° 0 mm 2 mps 744 mmHg 61%
    13:00 +16°C° 0.1 mm 2 mps 743 mmHg 61%
    14:00 +16°C° 0.1 mm 2 mps 742 mmHg 61%
    15:00 +17°C° 0.1 mm 2 mps 741 mmHg 61%
    16:00 +16°C° 1.8 mm 2 mps 741 mmHg 69%
    17:00 +15°C° 1.8 mm 1 mps 740 mmHg 77%
    18:00 +14°C° 1.8 mm 1 mps 739 mmHg 85%
    19:00 +14°C° 3.2 mm 2 mps 739 mmHg 86%
    20:00 +13°C° 3.2 mm 3 mps 738 mmHg 88%
    21:00 +13°C° 3.2 mm 3 mps 737 mmHg 89%
    22:00 +13°C° 1.3 mm 4 mps 736 mmHg 87%
    23:00 +14°C° 1.3 mm 4 mps 736 mmHg 85%
    Show more